Location: B?ogocice
(50.2413°N, 20.2361°E)
Time: 22:48:01
(UTC+00:00)

Cosmos 2227 Rocket - Pass Details

Date: 15 June 2024
Orbit: 839 x 844 km, 71.0° (Epoch: 17 July)

Event Time Altitude Azimuth Distance (km) Brightness Sun altitude
Exits shadow 00:05:03 15° 233° (SW) 2,140 3.8 -14.0°
Maximum altitude 00:09:39 51° 306° (NW) 1,054 2.8 -13.8°
Drops below altitude 10° 00:15:11 10° 22° (NNE) 2,475 6.1 -13.5°
Sets 00:17:43 0° 28° (NNE) 3,413 7.4 -13.3°
